Location: Dos Palmas
(32.4468°N, 116.8732°W)
Time: 01:30:34
(UTC+00:00)

MOS 1 - Pass Details

Date: 20 June 2021
Orbit: 878 x 892 km, 99.1° (Epoch: 27 July)

Event Time Altitude Azimuth Distance (km) Brightness Sun altitude
Exits shadow 03:56:49 10° 158° (SSE) 2,584 6.2 -11.3°
Reaches altitude 10° 03:56:54 10° 158° (SSE) 2,549 6.2 -11.3°
Maximum altitude 04:02:33 73° 75° (ENE) 930 4.3 -12.3°
Drops below altitude 10° 04:08:15 10° 351° (N) 2,563 7.4 -13.2°
Sets 04:10:39 0° 350° (N) 3,505 8.3 -13.6°
